Time,TemperatureF,DewpointF,PressureIn,WindDirection,WindDirectionDegrees,WindSpeedMPH,WindSpeedGustMPH,Humidity,HourlyPrecipIn,Conditions,Clouds,dailyrainin,SoftwareType,DateUTC
2013-02-06 00:00:00,22.5,-3.0,29.93,ESE,102,0.0,0.0,32,0.00,CLR,,0.00,WeatherDisplay:10.37,2013-02-06 05:00:00,
2013-02-06 00:01:00,22.5,-3.0,29.93,ESE,102,0.0,0.0,32,0.00,CLR,,0.00,WeatherDisplay:10.37,2013-02-06 05:01:00,
2013-02-06 00:06:00,22.6,-2.8,29.93,ESE,102,0.0,0.0,32,0.00,CLR,,0.00,WeatherDisplay:10.37,2013-02-06 05:06:00,
2013-02-06 00:11:00,22.6,-2.8,29.93,ESE,102,0.0,0.0,32,0.00,CLR,,0.00,WeatherDisplay:10.37,2013-02-06 05:11:00,
2013-02-06 00:16:00,22.8,-2.7,29.93,WNW,282,0.0,0.0,32,0.00,CLR,,0.00,WeatherDisplay:10.37,2013-02-06 05:16:00,
2013-02-06 00:21:00,22.8,-2.7,29.93,WNW,282,0.0,0.0,32,0.00,CLR,,0.00,WeatherDisplay:10.37,2013-02-06 05:21:00,
2013-02-06 00:26:00,22.8,-2.7,29.93,WNW,282,0.0,0.0,32,0.00,CLR,,0.00,WeatherDisplay:10.37,2013-02-06 05:26:00,
2013-02-06 00:31:00,22.8,-2.7,29.93,WNW,282,0.0,0.0,32,0.00,CLR,,0.00,WeatherDisplay:10.37,2013-02-06 05:31:00,
2013-02-06 00:36:00,22.8,-2.7,29.93,WNW,282,0.0,0.0,32,0.00,CLR,,0.00,WeatherDisplay:10.37,2013-02-06 05:36:00,
2013-02-06 00:41:00,22.8,-2.7,29.93,WNW,282,0.0,0.0,32,0.00,CLR,,0.00,WeatherDisplay:10.37,2013-02-06 05:41:00,
2013-02-06 00:46:00,22.8,-2.7,29.93,WNW,282,0.0,0.0,32,0.00,CLR,,0.00,WeatherDisplay:10.37,2013-02-06 05:46:00,
2013-02-06 00:51:00,22.8,-2.7,29.93,WNW,282,0.0,0.0,32,0.00,CLR,,0.00,WeatherDisplay:10.37,2013-02-06 05:51:00,
2013-02-06 00:56:00,22.8,-2.7,29.93,WNW,282,0.0,0.0,32,0.00,CLR,,0.00,WeatherDisplay:10.37,2013-02-06 05:56:00,
2013-02-06 01:01:00,22.8,-2.7,29.93,WNW,282,0.0,0.0,32,0.00,CLR,,0.00,WeatherDisplay:10.37,2013-02-06 06:01:00,
2013-02-06 01:06:00,22.8,-2.7,29.93,WNW,282,0.0,0.0,32,0.00,CLR,,0.00,WeatherDisplay:10.37,2013-02-06 06:06:00,
2013-02-06 01:11:00,22.8,-2.7,29.93,WNW,282,0.0,0.0,32,0.00,CLR,,0.00,WeatherDisplay:10.37,2013-02-06 06:11:00,
2013-02-06 01:16:00,22.8,-0.8,29.93,WNW,282,0.0,0.0,35,0.00,CLR,,0.00,WeatherDisplay:10.37,2013-02-06 06:16:00,
2013-02-06 01:21:00,22.8,-0.8,29.93,WNW,282,0.0,0.0,35,0.00,CLR,,0.00,WeatherDisplay:10.37,2013-02-06 06:21:00,
2013-02-06 01:26:00,22.8,0.4,29.93,WNW,282,0.0,0.0,37,0.00,CLR,,0.00,WeatherDisplay:10.37,2013-02-06 06:26:00,
2013-02-06 01:31:00,22.8,0.4,29.93,WNW,282,0.0,0.0,37,0.00,CLR,,0.00,WeatherDisplay:10.37,2013-02-06 06:31:00,
2013-02-06 01:36:00,22.8,0.4,29.93,WNW,282,0.0,0.0,37,0.00,CLR,,0.00,WeatherDisplay:10.37,2013-02-06 06:36:00,
2013-02-06 01:41:00,22.8,0.4,29.93,WNW,282,0.0,0.0,37,0.00,CLR,,0.00,WeatherDisplay:10.37,2013-02-06 06:41:00,
2013-02-06 01:46:00,22.8,0.4,29.93,WNW,282,0.0,0.0,37,0.00,CLR,,0.00,WeatherDisplay:10.37,2013-02-06 06:46:00,
2013-02-06 01:51:00,23.0,3.3,29.93,WNW,282,0.0,0.0,42,0.00,CLR,,0.00,WeatherDisplay:10.37,2013-02-06 06:51:00,
2013-02-06 01:56:00,23.0,3.3,29.93,WNW,282,0.0,0.0,42,0.00,CLR,,0.00,WeatherDisplay:10.37,2013-02-06 06:56:00,
2013-02-06 02:01:00,23.0,3.3,29.93,WNW,282,0.0,0.0,42,0.00,CLR,,0.00,WeatherDisplay:10.37,2013-02-06 07:01:00,
2013-02-06 02:06:00,23.0,2.2,29.93,WNW,282,0.0,0.0,40,0.00,CLR,,0.00,WeatherDisplay:10.37,2013-02-06 07:06:00,
2013-02-06 02:11:00,23.2,1.8,29.93,WNW,282,0.0,0.0,39,0.00,CLR,,0.00,WeatherDisplay:10.37,2013-02-06 07:11:00,
2013-02-06 02:16:00,23.2,3.4,29.93,WNW,282,0.0,0.0,42,0.00,CLR,,0.00,WeatherDisplay:10.37,2013-02-06 07:16:00,
2013-02-06 02:21:00,23.0,3.3,29.93,WNW,282,0.0,0.0,42,0.00,CLR,,0.00,WeatherDisplay:10.37,2013-02-06 07:21:00,
2013-02-06 02:26:00,23.0,2.2,29.93,WNW,282,0.0,0.0,40,0.00,CLR,,0.00,WeatherDisplay:10.37,2013-02-06 07:26:00,
2013-02-06 02:31:00,22.8,2.1,29.93,WNW,282,0.0,0.0,40,0.00,CLR,,0.00,WeatherDisplay:10.37,2013-02-06 07:31:00,
2013-02-06 02:36:00,22.8,2.1,29.93,WNW,282,0.0,0.0,40,0.00,CLR,,0.00,WeatherDisplay:10.37,2013-02-06 07:36:00,
2013-02-06 02:41:00,22.8,2.1,29.93,WNW,282,0.0,0.0,40,0.00,CLR,,0.00,WeatherDisplay:10.37,2013-02-06 07:41:00,
2013-02-06 02:46:00,22.8,2.1,29.93,WNW,282,0.0,0.0,40,0.00,CLR,,0.00,WeatherDisplay:10.37,2013-02-06 07:46:00,
2013-02-06 02:51:00,22.6,1.9,29.93,WNW,282,0.0,0.0,40,0.00,CLR,,0.00,WeatherDisplay:10.37,2013-02-06 07:51:00,
2013-02-06 02:56:00,22.8,2.1,29.93,WNW,282,0.0,0.0,40,0.00,CLR,,0.00,WeatherDisplay:10.37,2013-02-06 07:56:00,
2013-02-06 03:01:00,22.8,3.1,29.93,WNW,282,0.0,0.0,42,0.00,CLR,,0.00,WeatherDisplay:10.37,2013-02-06 08:01:00,
2013-02-06 03:06:00,22.6,3.0,29.93,WNW,282,0.0,0.0,42,0.00,CLR,,0.00,WeatherDisplay:10.37,2013-02-06 08:06:00,
2013-02-06 03:11:00,22.5,1.7,29.93,WNW,282,0.0,0.0,40,0.00,CLR,,0.00,WeatherDisplay:10.37,2013-02-06 08:11:00,
2013-02-06 03:16:00,22.5,2.8,29.93,WNW,282,0.0,0.0,42,0.00,CLR,,0.00,WeatherDisplay:10.37,2013-02-06 08:16:00,
2013-02-06 03:21:00,22.5,2.8,29.93,WNW,282,0.0,0.0,42,0.00,CLR,,0.00,WeatherDisplay:10.37,2013-02-06 08:21:00,
2013-02-06 03:26:00,22.3,1.6,29.90,WNW,282,0.0,0.0,40,0.00,CLR,,0.00,WeatherDisplay:10.37,2013-02-06 08:26:00,
2013-02-06 03:31:00,22.3,2.6,29.90,WNW,282,0.0,0.0,42,0.00,CLR,,0.00,WeatherDisplay:10.37,2013-02-06 08:31:00,
2013-02-06 03:36:00,22.3,1.6,29.90,WNW,282,0.0,0.0,40,0.00,CLR,,0.00,WeatherDisplay:10.37,2013-02-06 08:36:00,
2013-02-06 03:41:00,22.5,2.8,29.90,WNW,282,0.0,0.0,42,0.00,CLR,,0.00,WeatherDisplay:10.37,2013-02-06 08:41:00,
2013-02-06 03:46:00,22.6,3.0,29.90,WNW,282,0.0,0.0,42,0.00,CLR,,0.00,WeatherDisplay:10.37,2013-02-06 08:46:00,
2013-02-06 03:51:00,22.6,3.0,29.90,WNW,282,0.0,0.0,42,0.00,CLR,,0.00,WeatherDisplay:10.37,2013-02-06 08:51:00,
2013-02-06 03:56:00,22.6,1.9,29.93,WNW,282,0.0,0.0,40,0.00,CLR,,0.00,WeatherDisplay:10.37,2013-02-06 08:56:00,
2013-02-06 04:01:00,22.1,1.4,29.93,WNW,282,0.0,0.0,40,0.00,CLR,,0.00,WeatherDisplay:10.37,2013-02-06 09:01:00,
2013-02-06 04:06:00,21.7,2.1,29.93,WNW,282,0.0,0.0,42,0.00,CLR,,0.00,WeatherDisplay:10.37,2013-02-06 09:06:00,
2013-02-06 04:11:00,21.6,2.0,29.93,WNW,282,0.0,0.0,42,0.00,CLR,,0.00,WeatherDisplay:10.37,2013-02-06 09:11:00,
2013-02-06 04:16:00,21.0,2.0,29.93,WNW,282,0.0,0.0,43,0.00,CLR,,0.00,WeatherDisplay:10.37,2013-02-06 09:16:00,
2013-02-06 04:21:00,20.8,1.3,29.93,WNW,282,0.0,0.0,42,0.00,CLR,,0.00,WeatherDisplay:10.37,2013-02-06 09:21:00,
2013-02-06 04:26:00,20.8,1.8,29.93,WNW,282,0.0,0.0,43,0.00,CLR,,0.00,WeatherDisplay:10.37,2013-02-06 09:26:00,
2013-02-06 04:31:00,21.2,2.2,29.93,WNW,282,0.0,0.0,43,0.00,CLR,,0.00,WeatherDisplay:10.37,2013-02-06 09:31:00,
2013-02-06 04:36:00,21.6,2.5,29.93,WNW,282,0.0,0.0,43,0.00,CLR,,0.00,WeatherDisplay:10.37,2013-02-06 09:36:00,
2013-02-06 04:41:00,21.7,2.6,29.93,WNW,282,0.0,0.0,43,0.00,CLR,,0.00,WeatherDisplay:10.37,2013-02-06 09:41:00,
2013-02-06 04:46:00,21.9,3.3,29.93,WNW,282,0.0,0.0,44,0.00,CLR,,0.00,WeatherDisplay:10.37,2013-02-06 09:46:00,
2013-02-06 04:51:00,21.9,2.8,29.93,WNW,282,0.0,0.0,43,0.00,CLR,,0.00,WeatherDisplay:10.37,2013-02-06 09:51:00,
2013-02-06 04:56:00,21.9,2.8,29.93,WNW,282,0.0,0.0,43,0.00,CLR,,0.00,WeatherDisplay:10.37,2013-02-06 09:56:00,
2013-02-06 05:01:00,21.9,2.8,29.93,WNW,282,0.0,0.0,43,0.00,CLR,,0.00,WeatherDisplay:10.37,2013-02-06 10:01:00,
2013-02-06 05:06:00,21.9,2.8,29.93,WNW,282,0.0,0.0,43,0.00,CLR,,0.00,WeatherDisplay:10.37,2013-02-06 10:06:00,
2013-02-06 05:11:00,22.1,3.0,29.93,WNW,282,0.0,0.0,43,0.00,CLR,,0.00,WeatherDisplay:10.37,2013-02-06 10:11:00,
2013-02-06 05:16:00,22.1,3.0,29.93,WNW,282,0.0,0.0,43,0.00,CLR,,0.00,WeatherDisplay:10.37,2013-02-06 10:16:00,
2013-02-06 05:21:00,22.3,3.1,29.93,WNW,282,0.0,0.0,43,0.00,CLR,,0.00,WeatherDisplay:10.37,2013-02-06 10:21:00,
2013-02-06 05:26:00,22.3,3.1,29.93,WNW,282,0.0,0.0,43,0.00,CLR,,0.00,WeatherDisplay:10.37,2013-02-06 10:26:00,
2013-02-06 05:31:00,22.5,3.3,29.93,WNW,282,0.0,0.0,43,0.00,CLR,,0.00,WeatherDisplay:10.37,2013-02-06 10:31:00,
2013-02-06 05:36:00,22.5,3.3,29.93,WNW,282,0.0,0.0,43,0.00,CLR,,0.00,WeatherDisplay:10.37,2013-02-06 10:36:00,
2013-02-06 05:41:00,22.1,3.0,29.93,WNW,282,0.0,0.0,43,0.00,CLR,,0.00,WeatherDisplay:10.37,2013-02-06 10:41:00,
2013-02-06 05:46:00,21.9,2.8,29.93,WNW,282,0.0,0.0,43,0.00,CLR,,0.00,WeatherDisplay:10.37,2013-02-06 10:46:00,
2013-02-06 05:51:00,21.6,2.5,29.93,WNW,282,0.0,0.0,43,0.00,CLR,,0.00,WeatherDisplay:10.37,2013-02-06 10:51:00,
2013-02-06 05:56:00,21.6,2.5,29.93,WNW,282,0.0,0.0,43,0.00,CLR,,0.00,WeatherDisplay:10.37,2013-02-06 10:56:00,
2013-02-06 06:01:00,21.4,2.3,29.93,WNW,282,0.0,0.0,43,0.00,CLR,,0.00,WeatherDisplay:10.37,2013-02-06 11:01:00,
2013-02-06 06:06:00,21.4,2.3,29.93,WNW,282,0.0,0.0,43,0.00,CLR,,0.00,WeatherDisplay:10.37,2013-02-06 11:06:00,
2013-02-06 06:11:00,21.4,2.3,29.96,WNW,282,0.0,0.0,43,0.00,CLR,,0.00,WeatherDisplay:10.37,2013-02-06 11:11:00,
2013-02-06 06:16:00,21.4,2.3,29.96,WNW,282,0.0,0.0,43,0.00,CLR,,0.00,WeatherDisplay:10.37,2013-02-06 11:16:00,
2013-02-06 06:21:00,21.6,2.5,29.96,WNW,282,0.0,0.0,43,0.00,CLR,,0.00,WeatherDisplay:10.37,2013-02-06 11:21:00,
2013-02-06 06:26:00,21.6,3.0,29.96,WNW,282,0.0,0.0,44,0.00,CLR,,0.00,WeatherDisplay:10.37,2013-02-06 11:26:00,
2013-02-06 06:31:00,21.6,3.0,29.96,WNW,282,0.0,0.0,44,0.00,CLR,,0.00,WeatherDisplay:10.37,2013-02-06 11:31:00,
2013-02-06 06:36:00,21.4,2.8,29.96,WNW,282,0.0,0.0,44,0.00,CLR,,0.00,WeatherDisplay:10.37,2013-02-06 11:36:00,
2013-02-06 06:41:00,21.4,2.8,29.96,WNW,282,0.0,0.0,44,0.00,CLR,,0.00,WeatherDisplay:10.37,2013-02-06 11:41:00,
2013-02-06 06:46:00,21.4,2.8,29.96,WNW,282,0.0,0.0,44,0.00,CLR,,0.00,WeatherDisplay:10.37,2013-02-06 11:46:00,
2013-02-06 06:51:00,21.2,2.6,29.96,WNW,282,0.0,0.0,44,0.00,CLR,,0.00,WeatherDisplay:10.37,2013-02-06 11:51:00,
2013-02-06 06:56:00,21.0,2.5,29.96,WNW,282,0.0,0.0,44,0.00,CLR,,0.00,WeatherDisplay:10.37,2013-02-06 11:56:00,
2013-02-06 07:01:00,20.5,2.0,29.96,WNW,282,0.0,0.0,44,0.00,CLR,,0.00,WeatherDisplay:10.37,2013-02-06 12:01:00,
2013-02-06 07:06:00,20.5,2.0,29.96,WNW,282,0.0,0.0,44,0.00,CLR,,0.00,WeatherDisplay:10.37,2013-02-06 12:06:00,
2013-02-06 07:11:00,20.8,2.3,29.96,WNW,282,0.0,0.0,44,0.00,CLR,,0.00,WeatherDisplay:10.37,2013-02-06 12:11:00,
2013-02-06 07:16:00,20.8,2.3,29.96,WNW,282,0.0,0.0,44,0.00,CLR,,0.00,WeatherDisplay:10.37,2013-02-06 12:16:00,
2013-02-06 07:21:00,21.0,2.5,29.96,WNW,282,0.0,0.0,44,0.00,CLR,,0.00,WeatherDisplay:10.37,2013-02-06 12:21:00,
2013-02-06 07:26:00,21.2,3.1,29.96,WNW,282,0.0,0.0,45,0.00,CLR,,0.00,WeatherDisplay:10.37,2013-02-06 12:26:00,
2013-02-06 07:31:00,21.6,3.0,29.96,WNW,282,0.0,0.0,44,0.00,CLR,,0.00,WeatherDisplay:10.37,2013-02-06 12:31:00,
2013-02-06 07:36:00,22.5,4.3,29.96,WNW,282,0.0,0.0,45,0.00,CLR,,0.00,WeatherDisplay:10.37,2013-02-06 12:36:00,
2013-02-06 07:41:00,22.6,4.0,29.96,WNW,282,0.0,0.0,44,0.00,CLR,,0.00,WeatherDisplay:10.37,2013-02-06 12:41:00,
2013-02-06 07:46:00,22.8,4.1,29.96,WNW,282,0.0,0.0,44,0.00,CLR,,0.00,WeatherDisplay:10.37,2013-02-06 12:46:00,
2013-02-06 07:51:00,22.8,4.1,29.96,WNW,282,0.0,0.0,44,0.00,CLR,,0.00,WeatherDisplay:10.37,2013-02-06 12:51:00,
2013-02-06 07:56:00,22.8,4.1,29.96,WNW,282,0.0,0.0,44,0.00,CLR,,0.00,WeatherDisplay:10.37,2013-02-06 12:56:00,
2013-02-06 08:01:00,23.0,4.3,29.96,WNW,282,0.0,0.0,44,0.00,CLR,,0.00,WeatherDisplay:10.37,2013-02-06 13:01:00,
2013-02-06 08:06:00,23.2,4.0,29.96,WNW,282,0.0,0.0,43,0.00,CLR,,0.00,WeatherDisplay:10.37,2013-02-06 13:06:00,
2013-02-06 08:11:00,23.5,4.3,29.99,WNW,282,0.0,0.0,43,0.00,CLR,,0.00,WeatherDisplay:10.37,2013-02-06 13:11:00,
2013-02-06 08:16:00,23.9,4.6,29.99,WNW,282,0.0,0.0,43,0.00,CLR,,0.00,WeatherDisplay:10.37,2013-02-06 13:16:00,
2013-02-06 08:21:00,24.3,4.9,29.99,WNW,282,0.0,0.0,43,0.00,CLR,,0.00,WeatherDisplay:10.37,2013-02-06 13:21:00,
2013-02-06 08:26:00,24.4,5.1,29.99,WNW,282,0.0,0.0,43,0.00,CLR,,0.00,WeatherDisplay:10.37,2013-02-06 13:26:00,
2013-02-06 08:31:00,24.4,5.1,29.99,WNW,282,0.0,0.0,43,0.00,CLR,,0.00,WeatherDisplay:10.37,2013-02-06 13:31:00,
2013-02-06 08:36:00,24.8,4.9,29.99,WNW,282,0.0,0.0,42,0.00,CLR,,0.00,WeatherDisplay:10.37,2013-02-06 13:36:00,
2013-02-06 08:41:00,24.6,4.8,29.99,WNW,282,0.0,0.0,42,0.00,CLR,,0.00,WeatherDisplay:10.37,2013-02-06 13:41:00,
2013-02-06 08:46:00,26.1,6.1,29.99,WNW,282,0.0,0.0,42,0.00,CLR,,0.00,WeatherDisplay:10.37,2013-02-06 13:46:00,
2013-02-06 08:51:00,30.7,5.0,29.99,WNW,282,0.0,0.0,33,0.00,CLR,,0.00,WeatherDisplay:10.37,2013-02-06 13:51:00,
2013-02-06 08:56:00,29.3,1.6,29.99,WNW,282,0.0,0.0,30,0.00,CLR,,0.00,WeatherDisplay:10.37,2013-02-06 13:56:00,
2013-02-06 09:01:00,30.6,4.8,29.99,WNW,282,0.0,0.0,33,0.00,CLR,,0.00,WeatherDisplay:10.37,2013-02-06 14:01:00,
2013-02-06 09:06:00,32.5,4.5,29.99,WNW,282,0.0,0.0,30,0.00,CLR,,0.00,WeatherDisplay:10.37,2013-02-06 14:06:00,
2013-02-06 09:11:00,30.6,2.7,29.99,WNW,282,0.0,0.0,30,0.00,CLR,,0.00,WeatherDisplay:10.37,2013-02-06 14:11:00,
2013-02-06 09:16:00,30.0,2.3,29.99,WNW,282,0.0,0.0,30,0.00,CLR,,0.00,WeatherDisplay:10.37,2013-02-06 14:16:00,
2013-02-06 09:21:00,29.5,1.8,29.99,NW,313,0.0,0.0,30,0.00,CLR,,0.00,WeatherDisplay:10.37,2013-02-06 14:21:00,
2013-02-06 09:26:00,29.5,1.8,29.99,NW,313,2.3,0.0,30,0.00,CLR,,0.00,WeatherDisplay:10.37,2013-02-06 14:26:00,
2013-02-06 09:31:00,29.3,1.6,29.99,NW,314,2.3,0.0,30,0.00,CLR,,0.00,WeatherDisplay:10.37,2013-02-06 14:31:00,
2013-02-06 09:36:00,29.1,1.5,29.99,NW,313,2.3,2.3,30,0.00,CLR,,0.00,WeatherDisplay:10.37,2013-02-06 14:36:00,
2013-02-06 09:41:00,29.3,1.6,29.99,NW,314,0.0,0.0,30,0.00,CLR,,0.00,WeatherDisplay:10.37,2013-02-06 14:41:00,
2013-02-06 09:46:00,29.7,2.0,29.99,NW,307,2.3,0.0,30,0.00,CLR,,0.00,WeatherDisplay:10.37,2013-02-06 14:46:00,
2013-02-06 09:51:00,29.8,2.1,29.99,SW,231,0.0,0.0,30,0.00,CLR,,0.00,WeatherDisplay:10.37,2013-02-06 14:51:00,
2013-02-06 09:56:00,30.9,3.1,29.99,West,276,2.3,0.0,30,0.00,CLR,,0.00,WeatherDisplay:10.37,2013-02-06 14:56:00,
2013-02-06 10:01:00,31.1,3.2,29.99,WSW,245,2.3,0.0,30,0.00,CLR,,0.00,WeatherDisplay:10.37,2013-02-06 15:01:00,
2013-02-06 10:06:00,30.9,3.1,29.99,West,268,2.3,0.0,30,0.00,CLR,,0.00,WeatherDisplay:10.37,2013-02-06 15:06:00,
2013-02-06 10:11:00,31.6,3.7,29.99,NW,310,0.0,0.0,30,0.00,CLR,,0.00,WeatherDisplay:10.37,2013-02-06 15:11:00,
2013-02-06 10:16:00,31.6,3.7,29.99,West,265,3.5,0.0,30,0.00,CLR,,0.00,WeatherDisplay:10.37,2013-02-06 15:16:00,
2013-02-06 10:21:00,32.0,4.0,29.99,NNW,329,2.3,0.0,30,0.00,CLR,,0.00,WeatherDisplay:10.37,2013-02-06 15:21:00,
2013-02-06 10:26:00,32.4,4.3,29.99,NW,304,3.5,3.5,30,0.00,CLR,,0.00,WeatherDisplay:10.37,2013-02-06 15:26:00,
2013-02-06 10:31:00,32.0,4.0,29.99,NW,304,0.0,0.0,30,0.00,CLR,,0.00,WeatherDisplay:10.37,2013-02-06 15:31:00,
2013-02-06 10:36:00,30.9,3.1,29.99,WSW,250,0.0,0.0,30,0.00,CLR,,0.00,WeatherDisplay:10.37,2013-02-06 15:36:00,
2013-02-06 10:41:00,31.1,3.2,29.96,WNW,291,3.5,0.0,30,0.00,CLR,,0.00,WeatherDisplay:10.37,2013-02-06 15:41:00,
2013-02-06 10:46:00,31.5,3.5,29.96,West,272,3.5,0.0,30,0.00,CLR,,0.00,WeatherDisplay:10.37,2013-02-06 15:46:00,
2013-02-06 10:51:00,31.6,3.7,29.96,NW,321,5.8,5.8,30,0.00,CLR,,0.00,WeatherDisplay:10.37,2013-02-06 15:51:00,
2013-02-06 10:56:00,32.5,4.5,29.99,WSW,244,3.5,3.5,30,0.00,CLR,,0.00,WeatherDisplay:10.37,2013-02-06 15:56:00,
2013-02-06 11:01:00,32.5,4.5,29.99,NW,318,3.5,0.0,30,0.00,CLR,,0.00,WeatherDisplay:10.37,2013-02-06 16:01:00,
2013-02-06 11:06:00,33.4,5.3,29.99,WNW,303,3.5,3.5,30,0.00,CLR,,0.00,WeatherDisplay:10.37,2013-02-06 16:06:00,
2013-02-06 11:11:00,34.0,5.7,29.99,West,277,3.5,3.5,30,0.00,CLR,,0.00,WeatherDisplay:10.37,2013-02-06 16:11:00,
2013-02-06 11:16:00,34.3,6.1,29.99,NNW,331,3.5,3.5,30,0.00,CLR,,0.00,WeatherDisplay:10.37,2013-02-06 16:16:00,
2013-02-06 11:21:00,34.5,6.2,29.99,NW,313,3.5,3.5,30,0.00,CLR,,0.00,WeatherDisplay:10.37,2013-02-06 16:21:00,
2013-02-06 11:26:00,34.3,6.1,29.99,WSW,240,2.3,0.0,30,0.00,CLR,,0.00,WeatherDisplay:10.37,2013-02-06 16:26:00,
2013-02-06 11:31:00,35.6,6.4,29.99,West,279,8.1,8.1,29,0.00,CLR,,0.00,WeatherDisplay:10.37,2013-02-06 16:31:00,
2013-02-06 11:36:00,37.2,7.8,29.99,WSW,237,5.8,5.8,29,0.00,CLR,,0.00,WeatherDisplay:10.37,2013-02-06 16:36:00,
2013-02-06 11:41:00,37.9,8.5,29.96,WSW,252,3.5,3.5,29,0.00,CLR,,0.00,WeatherDisplay:10.37,2013-02-06 16:41:00,
2013-02-06 11:46:00,37.0,7.7,29.96,NW,311,6.9,6.9,29,0.00,CLR,,0.00,WeatherDisplay:10.37,2013-02-06 16:46:00,
2013-02-06 11:51:00,38.1,8.6,29.96,WSW,253,5.8,5.8,29,0.00,CLR,,0.00,WeatherDisplay:10.37,2013-02-06 16:51:00,
2013-02-06 11:56:00,38.8,9.2,29.96,West,268,3.5,3.5,29,0.00,CLR,,0.00,WeatherDisplay:10.37,2013-02-06 16:56:00,
2013-02-06 12:01:00,37.2,7.8,29.96,SW,217,3.5,3.5,29,0.00,CLR,,0.00,WeatherDisplay:10.37,2013-02-06 17:01:00,
2013-02-06 12:06:00,38.5,8.9,29.96,West,276,3.5,3.5,29,0.00,CLR,,0.00,WeatherDisplay:10.37,2013-02-06 17:06:00,
2013-02-06 12:11:00,38.5,8.9,29.96,WSW,245,5.8,5.8,29,0.00,CLR,,0.00,WeatherDisplay:10.37,2013-02-06 17:11:00,
2013-02-06 12:16:00,36.9,7.5,29.96,NW,307,5.8,5.8,29,0.00,CLR,,0.00,WeatherDisplay:10.37,2013-02-06 17:16:00,
2013-02-06 12:21:00,36.9,7.5,29.96,NW,304,8.1,8.1,29,0.00,CLR,,0.00,WeatherDisplay:10.37,2013-02-06 17:21:00,
2013-02-06 12:26:00,37.2,7.8,29.96,WNW,295,4.6,4.6,29,0.00,CLR,,0.00,WeatherDisplay:10.37,2013-02-06 17:26:00,
2013-02-06 12:31:00,37.9,8.5,29.96,WSW,252,5.8,5.8,29,0.00,CLR,,0.00,WeatherDisplay:10.37,2013-02-06 17:31:00,
2013-02-06 12:36:00,37.6,8.1,29.96,NW,305,5.8,5.8,29,0.00,CLR,,0.00,WeatherDisplay:10.37,2013-02-06 17:36:00,
2013-02-06 12:41:00,37.0,7.7,29.96,NW,317,8.1,8.1,29,0.00,CLR,,0.00,WeatherDisplay:10.37,2013-02-06 17:41:00,
2013-02-06 12:46:00,36.9,7.5,29.96,WNW,296,5.8,5.8,29,0.00,CLR,,0.00,WeatherDisplay:10.37,2013-02-06 17:46:00,
2013-02-06 12:51:00,36.5,7.2,29.96,West,279,8.1,8.1,29,0.00,CLR,,0.00,WeatherDisplay:10.37,2013-02-06 17:51:00,
2013-02-06 12:56:00,36.0,6.7,29.96,WNW,288,8.1,8.1,29,0.00,CLR,,0.00,WeatherDisplay:10.37,2013-02-06 17:56:00,
2013-02-06 13:01:00,36.0,6.7,29.96,NW,317,5.8,5.8,29,0.00,CLR,,0.00,WeatherDisplay:10.37,2013-02-06 18:01:00,
2013-02-06 13:06:00,35.8,6.6,29.96,WNW,283,4.6,4.6,29,0.00,CLR,,0.00,WeatherDisplay:10.37,2013-02-06 18:06:00,
2013-02-06 13:11:00,35.6,6.4,29.96,West,266,4.6,4.6,29,0.00,CLR,,0.00,WeatherDisplay:10.37,2013-02-06 18:11:00,
2013-02-06 13:16:00,36.3,7.0,29.96,West,270,4.6,4.6,29,0.00,CLR,,0.00,WeatherDisplay:10.37,2013-02-06 18:16:00,
2013-02-06 13:21:00,35.8,6.6,29.96,NNW,330,3.5,3.5,29,0.00,CLR,,0.00,WeatherDisplay:10.37,2013-02-06 18:21:00,
2013-02-06 13:26:00,36.1,6.9,29.96,West,279,3.5,4.0,29,0.00,CLR,,0.00,WeatherDisplay:10.37,2013-02-06 18:26:00,
2013-02-06 13:31:00,36.0,6.7,29.96,WSW,256,5.8,5.8,29,0.00,CLR,,0.00,WeatherDisplay:10.37,2013-02-06 18:31:00,
2013-02-06 13:36:00,36.1,6.9,29.96,WNW,300,8.1,8.1,29,0.00,CLR,,0.00,WeatherDisplay:10.37,2013-02-06 18:36:00,
2013-02-06 13:41:00,36.3,7.0,29.96,West,265,5.8,5.8,29,0.00,CLR,,0.00,WeatherDisplay:10.37,2013-02-06 18:41:00,
2013-02-06 13:46:00,36.3,7.0,29.96,NW,312,3.5,3.5,29,0.00,CLR,,0.00,WeatherDisplay:10.37,2013-02-06 18:46:00,
2013-02-06 13:51:00,35.8,6.6,29.96,SW,231,8.1,8.1,29,0.00,CLR,,0.00,WeatherDisplay:10.37,2013-02-06 18:51:00,
2013-02-06 13:56:00,35.6,6.4,29.99,West,267,6.9,6.9,29,0.00,CLR,,0.00,WeatherDisplay:10.37,2013-02-06 18:56:00,
2013-02-06 14:01:00,35.6,6.4,29.99,West,266,3.5,3.5,29,0.00,CLR,,0.00,WeatherDisplay:10.37,2013-02-06 19:01:00,
2013-02-06 14:06:00,35.8,6.6,29.99,WNW,290,3.5,3.5,29,0.00,CLR,,0.00,WeatherDisplay:10.37,2013-02-06 19:06:00,
2013-02-06 14:11:00,37.6,8.1,29.99,WNW,290,4.0,4.0,29,0.00,CLR,,0.00,WeatherDisplay:10.37,2013-02-06 19:11:00,
2013-02-06 14:16:00,36.7,7.4,29.99,NW,308,5.8,5.8,29,0.00,CLR,,0.00,WeatherDisplay:10.37,2013-02-06 19:16:00,
2013-02-06 14:21:00,36.3,7.0,29.99,North,357,8.1,8.1,29,0.00,CLR,,0.00,WeatherDisplay:10.37,2013-02-06 19:21:00,
2013-02-06 14:26:00,36.7,7.4,29.99,NW,307,5.8,5.8,29,0.00,CLR,,0.00,WeatherDisplay:10.37,2013-02-06 19:26:00,
2013-02-06 14:31:00,35.8,6.6,29.99,NNW,343,6.9,6.9,29,0.00,CLR,,0.00,WeatherDisplay:10.37,2013-02-06 19:31:00,
2013-02-06 14:36:00,35.6,6.4,29.99,West,276,8.1,8.1,29,0.00,CLR,,0.00,WeatherDisplay:10.37,2013-02-06 19:36:00,
2013-02-06 14:41:00,35.2,6.8,29.99,West,266,4.6,4.6,30,0.00,CLR,,0.00,WeatherDisplay:10.37,2013-02-06 19:41:00,
2013-02-06 14:46:00,35.4,7.0,29.99,West,279,5.8,5.8,30,0.00,CLR,,0.00,WeatherDisplay:10.37,2013-02-06 19:46:00,
2013-02-06 14:51:00,35.4,7.0,29.99,WNW,290,8.1,8.1,30,0.00,CLR,,0.00,WeatherDisplay:10.37,2013-02-06 19:51:00,
2013-02-06 14:56:00,35.1,6.7,29.99,West,273,5.8,5.8,30,0.00,CLR,,0.00,WeatherDisplay:10.37,2013-02-06 19:56:00,
2013-02-06 15:01:00,34.5,6.2,29.99,WSW,244,5.8,5.8,30,0.00,CLR,,0.00,WeatherDisplay:10.37,2013-02-06 20:01:00,
2013-02-06 15:06:00,34.5,6.2,29.99,WSW,244,8.1,8.1,30,0.00,CLR,,0.00,WeatherDisplay:10.37,2013-02-06 20:06:00,
2013-02-06 15:11:00,34.7,6.4,29.99,West,268,5.8,5.8,30,0.00,CLR,,0.00,WeatherDisplay:10.37,2013-02-06 20:11:00,
2013-02-06 15:16:00,35.2,6.8,29.99,NW,313,3.5,4.5,30,0.00,CLR,,0.00,WeatherDisplay:10.37,2013-02-06 20:16:00,
2013-02-06 15:21:00,36.0,6.7,29.99,West,278,8.1,8.1,29,0.00,CLR,,0.00,WeatherDisplay:10.37,2013-02-06 20:21:00,
2013-02-06 15:26:00,36.1,6.9,29.99,WSW,251,10.4,10.4,29,0.00,CLR,,0.00,WeatherDisplay:10.37,2013-02-06 20:26:00,
2013-02-06 15:31:00,36.0,6.7,29.99,West,267,10.4,10.4,29,0.00,CLR,,0.00,WeatherDisplay:10.37,2013-02-06 20:31:00,
2013-02-06 15:36:00,35.4,7.0,29.99,NW,307,4.6,4.6,30,0.00,CLR,,0.00,WeatherDisplay:10.37,2013-02-06 20:36:00,
2013-02-06 15:41:00,35.8,6.6,29.99,WSW,257,3.5,3.5,29,0.00,CLR,,0.00,WeatherDisplay:10.37,2013-02-06 20:41:00,
2013-02-06 15:46:00,35.2,6.8,29.99,North,353,8.1,8.1,30,0.00,CLR,,0.00,WeatherDisplay:10.37,2013-02-06 20:46:00,
2013-02-06 15:51:00,34.9,6.5,29.99,WNW,303,4.6,4.6,30,0.00,CLR,,0.00,WeatherDisplay:10.37,2013-02-06 20:51:00,
2013-02-06 15:56:00,34.9,6.5,30.02,WNW,301,3.5,3.5,30,0.00,CLR,,0.00,WeatherDisplay:10.37,2013-02-06 20:56:00,
2013-02-06 16:01:00,35.1,6.7,30.02,WNW,299,3.5,3.6,30,0.00,CLR,,0.00,WeatherDisplay:10.37,2013-02-06 21:01:00,
2013-02-06 16:06:00,34.7,6.4,30.02,WNW,296,3.5,3.5,30,0.00,CLR,,0.00,WeatherDisplay:10.37,2013-02-06 21:06:00,
2013-02-06 16:11:00,35.4,7.0,30.02,SSW,206,3.5,4.0,30,0.00,CLR,,0.00,WeatherDisplay:10.37,2013-02-06 21:11:00,
2013-02-06 16:16:00,35.1,6.7,30.02,NW,305,5.8,5.8,30,0.00,CLR,,0.00,WeatherDisplay:10.37,2013-02-06 21:16:00,
2013-02-06 16:21:00,35.1,6.7,30.02,NNW,341,3.5,3.5,30,0.00,CLR,,0.00,WeatherDisplay:10.37,2013-02-06 21:21:00,
2013-02-06 16:26:00,34.3,6.1,30.02,West,263,3.5,3.5,30,0.00,CLR,,0.00,WeatherDisplay:10.37,2013-02-06 21:26:00,
2013-02-06 16:31:00,34.5,6.2,30.02,WSW,253,5.8,5.8,30,0.00,CLR,,0.00,WeatherDisplay:10.37,2013-02-06 21:31:00,
2013-02-06 16:36:00,34.5,6.2,30.02,West,281,5.8,5.8,30,0.00,CLR,,0.00,WeatherDisplay:10.37,2013-02-06 21:36:00,
2013-02-06 16:41:00,34.2,5.9,30.02,WNW,289,3.5,3.5,30,0.00,CLR,,0.00,WeatherDisplay:10.37,2013-02-06 21:41:00,
2013-02-06 16:46:00,33.8,5.6,30.02,WNW,283,3.5,0.0,30,0.00,CLR,,0.00,WeatherDisplay:10.37,2013-02-06 21:46:00,
2013-02-06 16:51:00,33.8,5.6,30.02,West,278,3.5,3.5,30,0.00,CLR,,0.00,WeatherDisplay:10.37,2013-02-06 21:51:00,
2013-02-06 16:56:00,33.4,5.3,30.05,WNW,293,2.3,2.7,30,0.00,CLR,,0.00,WeatherDisplay:10.37,2013-02-06 21:56:00,
2013-02-06 17:01:00,33.1,5.0,30.05,ESE,114,0.0,0.0,30,0.00,CLR,,0.00,WeatherDisplay:10.37,2013-02-06 22:01:00,
2013-02-06 17:06:00,32.5,4.5,30.05,ESE,114,0.0,0.0,30,0.00,CLR,,0.00,WeatherDisplay:10.37,2013-02-06 22:06:00,
2013-02-06 17:11:00,31.8,5.9,30.05,ESE,114,0.0,0.0,33,0.00,CLR,,0.00,WeatherDisplay:10.37,2013-02-06 22:11:00,
2013-02-06 17:16:00,31.1,3.2,30.05,WNW,291,0.0,0.0,30,0.00,CLR,,0.00,WeatherDisplay:10.37,2013-02-06 22:16:00,
2013-02-06 17:21:00,30.7,2.9,30.05,WNW,298,2.3,2.3,30,0.00,CLR,,0.00,WeatherDisplay:10.37,2013-02-06 22:21:00,
2013-02-06 17:26:00,30.2,2.4,30.05,WNW,301,3.5,3.5,30,0.00,CLR,,0.00,WeatherDisplay:10.37,2013-02-06 22:26:00,
2013-02-06 17:31:00,30.0,2.3,30.05,WNW,298,2.3,0.0,30,0.00,CLR,,0.00,WeatherDisplay:10.37,2013-02-06 22:31:00,
2013-02-06 17:36:00,29.8,2.1,30.05,WNW,298,0.0,0.0,30,0.00,CLR,,0.00,WeatherDisplay:10.37,2013-02-06 22:36:00,
2013-02-06 17:41:00,29.5,1.8,30.08,NW,307,3.5,3.5,30,0.00,CLR,,0.00,WeatherDisplay:10.37,2013-02-06 22:41:00,
2013-02-06 17:46:00,29.3,1.6,30.08,WNW,287,2.3,0.0,30,0.00,CLR,,0.00,WeatherDisplay:10.37,2013-02-06 22:46:00,
2013-02-06 17:51:00,28.9,1.3,30.08,West,266,3.5,3.5,30,0.00,CLR,,0.00,WeatherDisplay:10.37,2013-02-06 22:51:00,
2013-02-06 17:56:00,29.3,1.6,30.08,WNW,303,3.5,3.5,30,0.00,CLR,,0.00,WeatherDisplay:10.37,2013-02-06 22:56:00,
2013-02-06 18:01:00,29.3,1.6,30.08,WNW,303,3.5,3.5,30,0.00,CLR,,0.00,WeatherDisplay:10.37,2013-02-06 23:01:00,
2013-02-06 18:06:00,29.3,1.6,30.08,NW,312,3.5,3.6,30,0.00,CLR,,0.00,WeatherDisplay:10.37,2013-02-06 23:06:00,
2013-02-06 18:11:00,29.5,1.8,30.08,WNW,295,5.8,5.8,30,0.00,CLR,,0.00,WeatherDisplay:10.37,2013-02-06 23:11:00,
2013-02-06 18:16:00,29.8,2.1,30.08,WNW,288,4.6,4.6,30,0.00,CLR,,0.00,WeatherDisplay:10.37,2013-02-06 23:16:00,
2013-02-06 18:21:00,30.2,2.4,30.08,NW,322,5.8,5.8,30,0.00,CLR,,0.00,WeatherDisplay:10.37,2013-02-06 23:21:00,
2013-02-06 18:26:00,30.7,2.9,30.08,WNW,282,3.5,3.5,30,0.00,CLR,,0.00,WeatherDisplay:10.37,2013-02-06 23:26:00,
2013-02-06 18:31:00,31.1,3.2,30.08,South,184,2.3,0.0,30,0.00,CLR,,0.00,WeatherDisplay:10.37,2013-02-06 23:31:00,
2013-02-06 18:36:00,30.9,3.1,30.08,NW,322,0.0,0.0,30,0.00,CLR,,0.00,WeatherDisplay:10.37,2013-02-06 23:36:00,
2013-02-06 18:41:00,29.8,2.1,30.11,WNW,296,0.0,0.0,30,0.00,CLR,,0.00,WeatherDisplay:10.37,2013-02-06 23:41:00,
2013-02-06 18:46:00,29.5,1.8,30.11,WNW,296,0.0,0.0,30,0.00,CLR,,0.00,WeatherDisplay:10.37,2013-02-06 23:46:00,
2013-02-06 18:51:00,29.1,1.5,30.11,West,271,0.0,0.0,30,0.00,CLR,,0.00,WeatherDisplay:10.37,2013-02-06 23:51:00,
2013-02-06 18:56:00,28.6,1.0,30.11,West,277,2.3,0.0,30,0.00,CLR,,0.00,WeatherDisplay:10.37,2013-02-06 23:56:00,
2013-02-06 19:01:00,29.3,1.6,30.11,West,259,0.0,0.0,30,0.00,CLR,,0.00,WeatherDisplay:10.37,2013-02-07 00:01:00,
2013-02-06 19:06:00,28.6,1.0,30.11,West,259,0.0,0.0,30,0.00,CLR,,0.00,WeatherDisplay:10.37,2013-02-07 00:06:00,
2013-02-06 19:11:00,27.7,0.9,30.14,NW,306,3.5,0.0,31,0.00,CLR,,0.00,WeatherDisplay:10.37,2013-02-07 00:11:00,
2013-02-06 19:16:00,27.3,0.6,30.14,NW,306,0.0,0.0,31,0.00,CLR,,0.00,WeatherDisplay:10.37,2013-02-07 00:16:00,
2013-02-06 19:21:00,27.3,0.6,30.14,NW,306,0.0,0.0,31,0.00,CLR,,0.00,WeatherDisplay:10.37,2013-02-07 00:21:00,
2013-02-06 19:26:00,27.0,0.3,30.14,WNW,291,0.0,0.0,31,0.00,CLR,,0.00,WeatherDisplay:10.37,2013-02-07 00:26:00,
2013-02-06 19:31:00,27.5,0.8,30.14,WNW,301,2.3,0.0,31,0.00,CLR,,0.00,WeatherDisplay:10.37,2013-02-07 00:31:00,
2013-02-06 19:36:00,27.7,0.9,30.14,WNW,301,0.0,0.0,31,0.00,CLR,,0.00,WeatherDisplay:10.37,2013-02-07 00:36:00,
2013-02-06 19:41:00,27.1,0.4,30.14,WNW,301,0.0,0.0,31,0.00,CLR,,0.00,WeatherDisplay:10.37,2013-02-07 00:41:00,
2013-02-06 19:46:00,26.6,0.0,30.14,WNW,301,0.0,0.0,31,0.00,CLR,,0.00,WeatherDisplay:10.37,2013-02-07 00:46:00,
2013-02-06 19:51:00,26.2,-0.3,30.14,WNW,301,0.0,0.0,31,0.00,CLR,,0.00,WeatherDisplay:10.37,2013-02-07 00:51:00,
2013-02-06 19:56:00,25.7,-0.8,30.17,WNW,301,0.0,0.0,31,0.00,CLR,,0.00,WeatherDisplay:10.37,2013-02-07 00:56:00,
2013-02-06 20:01:00,25.5,-1.0,30.17,WNW,301,0.0,0.0,31,0.00,CLR,,0.00,WeatherDisplay:10.37,2013-02-07 01:01:00,
2013-02-06 20:06:00,25.9,-0.7,30.17,ENE,76,2.3,0.0,31,0.00,CLR,,0.00,WeatherDisplay:10.37,2013-02-07 01:06:00,
2013-02-06 20:11:00,25.7,-0.8,30.17,East,80,0.0,0.0,31,0.00,CLR,,0.00,WeatherDisplay:10.37,2013-02-07 01:11:00,
2013-02-06 20:16:00,25.5,-1.0,30.17,East,80,0.0,0.0,31,0.00,CLR,,0.00,WeatherDisplay:10.37,2013-02-07 01:16:00,
2013-02-06 20:21:00,25.3,0.8,30.17,East,80,0.0,0.0,34,0.00,CLR,,0.00,WeatherDisplay:10.37,2013-02-07 01:21:00,
2013-02-06 20:26:00,25.3,0.8,30.17,East,80,0.0,0.0,34,0.00,CLR,,0.00,WeatherDisplay:10.37,2013-02-07 01:26:00,
2013-02-06 20:31:00,24.6,-1.1,30.17,East,80,0.0,0.0,32,0.00,CLR,,0.00,WeatherDisplay:10.37,2013-02-07 01:31:00,
2013-02-06 20:36:00,24.6,-1.1,30.17,East,80,0.0,0.0,32,0.00,CLR,,0.00,WeatherDisplay:10.37,2013-02-07 01:36:00,
2013-02-06 20:41:00,24.4,-1.3,30.17,East,80,0.0,0.0,32,0.00,CLR,,0.00,WeatherDisplay:10.37,2013-02-07 01:41:00,
2013-02-06 20:46:00,24.4,-1.3,30.17,WNW,299,2.3,2.7,32,0.00,CLR,,0.00,WeatherDisplay:10.37,2013-02-07 01:46:00,
2013-02-06 20:51:00,25.0,0.5,30.17,WNW,290,0.0,2.7,34,0.00,CLR,,0.00,WeatherDisplay:10.37,2013-02-07 01:51:00,
2013-02-06 20:56:00,27.0,0.3,30.19,WNW,286,3.5,3.6,31,0.00,CLR,,0.00,WeatherDisplay:10.37,2013-02-07 01:56:00,
2013-02-06 21:01:00,27.3,0.6,30.19,West,277,5.8,5.8,31,0.00,CLR,,0.00,WeatherDisplay:10.37,2013-02-07 02:01:00,
2013-02-06 21:06:00,27.3,0.6,30.19,WNW,297,8.1,8.1,31,0.00,CLR,,0.00,WeatherDisplay:10.37,2013-02-07 02:06:00,
2013-02-06 21:11:00,27.7,0.9,30.19,West,266,5.8,5.8,31,0.00,CLR,,0.00,WeatherDisplay:10.37,2013-02-07 02:11:00,
2013-02-06 21:16:00,27.5,0.8,30.19,West,278,0.0,0.0,31,0.00,CLR,,0.00,WeatherDisplay:10.37,2013-02-07 02:16:00,
2013-02-06 21:21:00,27.1,0.4,30.19,WNW,285,2.3,0.0,31,0.00,CLR,,0.00,WeatherDisplay:10.37,2013-02-07 02:21:00,
2013-02-06 21:26:00,26.4,-0.2,30.19,North,8,0.0,0.0,31,0.00,CLR,,0.00,WeatherDisplay:10.37,2013-02-07 02:26:00,
2013-02-06 21:31:00,25.9,-0.7,30.19,North,353,0.0,0.0,31,0.00,CLR,,0.00,WeatherDisplay:10.37,2013-02-07 02:31:00,
2013-02-06 21:36:00,25.7,1.2,30.19,WNW,294,0.0,0.0,34,0.00,CLR,,0.00,WeatherDisplay:10.37,2013-02-07 02:36:00,
2013-02-06 21:41:00,25.5,-1.0,30.22,WNW,283,0.0,0.0,31,0.00,CLR,,0.00,WeatherDisplay:10.37,2013-02-07 02:41:00,
2013-02-06 21:46:00,25.3,-1.1,30.22,WNW,283,0.0,0.0,31,0.00,CLR,,0.00,WeatherDisplay:10.37,2013-02-07 02:46:00,
2013-02-06 21:51:00,25.0,-1.5,30.22,WNW,283,0.0,0.0,31,0.00,CLR,,0.00,WeatherDisplay:10.37,2013-02-07 02:51:00,
2013-02-06 21:56:00,25.0,-1.5,30.22,WNW,287,0.0,0.0,31,0.00,CLR,,0.00,WeatherDisplay:10.37,2013-02-07 02:56:00,
2013-02-06 22:01:00,24.6,-1.1,30.22,WNW,287,0.0,0.0,32,0.00,CLR,,0.00,WeatherDisplay:10.37,2013-02-07 03:01:00,
2013-02-06 22:06:00,24.4,-1.3,30.22,West,268,2.3,0.0,32,0.00,CLR,,0.00,WeatherDisplay:10.37,2013-02-07 03:06:00,
2013-02-06 22:11:00,24.3,-1.4,30.22,NW,313,0.0,0.0,32,0.00,CLR,,0.00,WeatherDisplay:10.37,2013-02-07 03:11:00,
2013-02-06 22:16:00,24.4,-1.3,30.22,WNW,294,2.3,0.0,32,0.00,CLR,,0.00,WeatherDisplay:10.37,2013-02-07 03:16:00,
2013-02-06 22:21:00,24.8,-0.9,30.22,WNW,303,3.5,3.5,32,0.00,CLR,,0.00,WeatherDisplay:10.37,2013-02-07 03:21:00,
2013-02-06 22:26:00,25.0,-1.5,30.25,WNW,291,5.8,5.8,31,0.00,CLR,,0.00,WeatherDisplay:10.37,2013-02-07 03:26:00,
2013-02-06 22:31:00,25.0,-1.5,30.25,North,1,3.5,0.0,31,0.00,CLR,,0.00,WeatherDisplay:10.37,2013-02-07 03:31:00,
2013-02-06 22:36:00,25.0,-1.5,30.25,North,353,2.3,0.0,31,0.00,CLR,,0.00,WeatherDisplay:10.37,2013-02-07 03:36:00,
2013-02-06 22:41:00,24.4,-1.3,30.25,WNW,293,3.5,0.0,32,0.00,CLR,,0.00,WeatherDisplay:10.37,2013-02-07 03:41:00,
2013-02-06 22:46:00,24.4,-1.3,30.25,WNW,295,0.0,0.0,32,0.00,CLR,,0.00,WeatherDisplay:10.37,2013-02-07 03:46:00,
2013-02-06 22:51:00,24.3,-1.4,30.25,North,353,3.5,3.5,32,0.00,CLR,,0.00,WeatherDisplay:10.37,2013-02-07 03:51:00,
2013-02-06 22:56:00,24.8,-0.9,30.25,NNE,27,4.6,4.6,32,0.00,CLR,,0.00,WeatherDisplay:10.37,2013-02-07 03:56:00,
2013-02-06 23:01:00,24.6,-1.1,30.25,North,353,3.5,3.5,32,0.00,CLR,,0.00,WeatherDisplay:10.37,2013-02-07 04:01:00,
2013-02-06 23:06:00,24.1,-1.6,30.25,NNW,335,0.0,0.0,32,0.00,CLR,,0.00,WeatherDisplay:10.37,2013-02-07 04:06:00,
2013-02-06 23:11:00,23.7,-1.9,30.25,West,274,2.3,2.3,32,0.00,CLR,,0.00,WeatherDisplay:10.37,2013-02-07 04:11:00,
2013-02-06 23:16:00,23.5,-2.1,30.25,NNE,16,3.5,3.5,32,0.00,CLR,,0.00,WeatherDisplay:10.37,2013-02-07 04:16:00,
2013-02-06 23:21:00,23.4,-2.2,30.25,NNW,346,2.3,0.0,32,0.00,CLR,,0.00,WeatherDisplay:10.37,2013-02-07 04:21:00,
2013-02-06 23:26:00,23.2,-2.4,30.28,North,10,0.0,0.0,32,0.00,CLR,,0.00,WeatherDisplay:10.37,2013-02-07 04:26:00,
2013-02-06 23:31:00,23.2,-2.4,30.28,North,5,8.1,8.1,32,0.00,CLR,,0.00,WeatherDisplay:10.37,2013-02-07 04:31:00,
2013-02-06 23:36:00,23.2,-2.4,30.28,North,357,2.3,0.0,32,0.00,CLR,,0.00,WeatherDisplay:10.37,2013-02-07 04:36:00,
2013-02-06 23:41:00,23.0,-2.5,30.28,WNW,289,6.3,6.3,32,0.00,CLR,,0.00,WeatherDisplay:10.37,2013-02-07 04:41:00,
2013-02-06 23:46:00,23.2,-2.4,30.28,NNW,328,5.8,5.8,32,0.00,CLR,,0.00,WeatherDisplay:10.37,2013-02-07 04:46:00,
2013-02-06 23:51:00,22.8,-2.7,30.28,WSW,245,2.3,0.0,32,0.00,CLR,,0.00,WeatherDisplay:10.37,2013-02-07 04:51:00,
2013-02-06 23:56:00,22.6,-2.8,30.28,WNW,299,3.5,3.5,32,0.00,CLR,,0.00,WeatherDisplay:10.37,2013-02-07 04:56:00,